P/2020 V3 ( PanSTARRS )

Japanese version
Home page
Updated on January 6, 2021

---------------------------------------------------------------------

* Profile

Discovery Date November 10, 2020
Magnitude 20.6 mag
Discoverer Pan-STARRS 1 telescope (Haleakala)

* Pictures

* Orbital Elements

Epoch 2020 Dec. 17.0 TT = JDT 2459200.5                                         
T 2020 Dec. 7.89433 TT                                  Veres                   
q   6.2387377            (2000.0)            P               Q                  
n   0.04048288     Peri.  244.77974     +0.14191415     -0.98215061             
a   8.4001775      Node   198.37784     +0.98895892     +0.14605113             
e   0.2573088      Incl.   23.05177     +0.04266871     -0.11852953             
P  24.3                                                                         
From 89 observations 2020 Oct. 17-Nov. 25, mean residual 1".0.                  

* Magnitudes Graph

        m1 = 8.5 + 5 log d + 10.0 log r

---------------------------------------------------------------------

The orbital elements are published on M.P.E.C. 2020-W178.
The magnitudes graphs are made with Comet for Windows.

---------------------------------------------------------------------

Copyright(C) Seiichi Yoshida (comet@aerith.net). All rights reserved.